This demonstration page uses our WeatherBlox Daily Observations layout. Learn more.

Hourly Observations for February 18, 2019

Temp ( °F °C ) Dew Point ( °F °C ) Humidity (%) Winds ( mph kmh ) Pressure ( in mb ) Visibility ( mi km ) Precip ( " mm )
12:15 am 00:15 Clear 5 -15.1 0 -17.6 81 81 NNW 13 20 30.5 1033 10 16.0934 0 0
12:35 am 00:35 Clear 4 -15.5 0 -18 81 81 NNW 8 13 30.52 1034 10 16.0934 0 0
12:55 am 00:55 Clear 4 -15.7 -1 -18.2 81 81 NNW 9 15 30.53 1034 10 16.0934 0 0
1:15 am 01:15 Clear 3 -15.9 -1 -18.4 81 81 NNW 12 19 30.53 1034 10 16.0934 0 0
1:35 am 01:35 Clear 3 -16 -1 -18.5 81 81 NNW 14 22 30.53 1034 10 16.0934 0 0
1:55 am 01:55 Clear 3 -16.3 -2 -18.8 81 81 NNW 14 22 30.54 1034 10 16.0934 0 0
2:15 am 02:15 Clear 2 -16.6 -2 -19 82 82 NNW 14 22 30.54 1034 10 16.0934 0 0
2:35 am 02:35 Clear 2 -16.8 -2 -19.1 83 83 NNW 13 20 30.54 1034 10 16.0934 0 0
2:55 am 02:55 Clear 2 -16.7 -2 -19 83 83 N 16 26 30.54 1034 10 16.0934 0 0
3:15 am 03:15 Clear 1 -17.1 -3 -19.5 82 82 NNW 13 20 30.55 1035 10 16.0934 0 0
3:35 am 03:35 Clear 1 -17.4 -3 -19.6 83 83 NNW 9 15 30.57 1035 10 16.0934 0 0
3:55 am 03:55 Clear 0 -17.6 -4 -20 82 82 NW 7 11 30.58 1035 10 16.0934 0 0
4:15 am 04:15 Clear -1 -18.5 -5 -20.7 83 83 NW 9 15 30.59 1036 10 16.0934 0 0
4:35 am 04:35 Clear -2 -18.7 -5 -20.7 84 84 NW 9 15 30.6 1036 10 16.0934 0 0
4:55 am 04:55 Clear -1 -18.3 -4 -20.2 85 85 NNW 10 17 30.6 1036 10 16.0934 0 0
5:15 am 05:15 Clear 1 -17.5 -3 -19.7 83 83 NNW 9 15 30.6 1036 10 16.0934 0 0
5:35 am 05:35 Clear 0 -17.9 -4 -20.2 82 82 WNW 8 13 30.62 1037 10 16.0934 0 0
5:55 am 05:55 Clear -3 -19.2 -6 -21.3 84 84 WNW 8 13 30.64 1037 10 16.0934 0 0
6:15 am 06:15 Clear -2 -19 -6 -20.9 85 85 WNW 7 11 30.63 1037 10 16.0934 0 0
6:35 am 06:35 Clear -2 -19 -6 -21 84 84 WNW 8 13 30.64 1038 10 16.0934 0 0
6:55 am 06:55 Clear -4 -20 -8 -22.1 83 83 NW 7 11 30.66 1038 10 16.0934 0 0
7:15 am 07:15 Clear -4 -19.9 -7 -21.8 85 85 NW 8 13 30.66 1038 10 16.0934 0 0
7:35 am 07:35 Sunny -2 -19 -6 -21 84 84 WNW 8 13 30.66 1038 10 16.0934 0 0
7:55 am 07:55 Sunny -2 -19 -6 -21.1 84 84 WNW 8 13 30.68 1039 10 16.0934 0 0
8:15 am 08:15 Sunny -4 -19.9 -8 -22.3 81 81 NW 9 15 30.7 1040 10 16.0934 0 0
8:35 am 08:35 Sunny -1 -18.3 -5 -20.7 82 82 NW 10 17 30.71 1040 10 16.0934 0 0
8:55 am 08:55 Sunny 1 -17.4 -4 -20 80 80 NW 8 13 30.7 1040 10 16.0934 0 0
9:15 am 09:15 Sunny 3 -16.2 -2 -19.1 79 79 NW 9 15 30.69 1039 10 16.0934 0 0
9:35 am 09:35 Partly Cloudy 4 -15.3 -1 -18.5 77 77 NW 9 15 30.69 1039 10 16.0934 0 0
9:55 am 09:55 Mostly Cloudy 5 -15.1 -1 -18.3 77 77 NNW 9 15 30.69 1039 10 16.0934 0 0
10:15 am 10:15 Mostly Cloudy 7 -14.1 1 -17.3 77 77 NNW 8 13 30.68 1039 10 16.0934 0 0
10:35 am 10:35 Mostly Cloudy 6 -14.2 1 -17.5 76 76 N 10 17 30.68 1039 10 16.0934 0 0
10:55 am 10:55 Mostly Cloudy 8 -13.5 2 -16.9 76 76 N 12 19 30.67 1039 10 16.0934 0 0
11:15 am 11:15 Partly Cloudy 8 -13.5 2 -16.8 76 76 N 9 15 30.67 1039 10 16.0934 0 0
11:35 am 11:35 Sunny 8 -13.1 2 -16.5 76 76 N 9 15 30.68 1039 10 16.0934 0 0
11:55 am 11:55 Sunny 9 -12.6 3 -16 76 76 N 8 13 30.67 1039 10 16.0934 0 0
12:15 pm 12:15 Partly Cloudy 10 -12.2 4 -15.6 76 76 N 8 13 30.66 1038 10 16.0934 0 0
12:35 pm 12:35 Partly Cloudy 11 -11.9 4 -15.3 76 76 N 8 13 30.66 1038 10 16.0934 0 0
12:55 pm 12:55 Mostly Cloudy 11 -11.4 5 -14.8 76 76 N 6 9 30.65 1038 10 16.0934 0 0
1:15 pm 13:15 Cloudy 13 -10.8 6 -14.4 75 75 N 5 7 30.64 1037 10 16.0934 0 0
1:35 pm 13:35 Mostly Cloudy 13 -10.5 6 -14.2 75 75 N 6 9 30.63 1037 10 16.0934 0 0
1:55 pm 13:55 Partly Cloudy 13 -10.5 6 -14.2 75 75 N 5 7 30.62 1037 10 16.0934 0 0
2:15 pm 14:15 Mostly Cloudy 13 -10.6 7 -13.9 77 77 N 5 7 30.62 1037 10 16.0934 0 0
2:35 pm 14:35 Cloudy 13 -10.6 7 -13.9 77 77 NNE 5 7 30.61 1037 10 16.0934 0 0
2:55 pm 14:55 Mostly Cloudy 13 -10.5 7 -13.7 78 78 N 5 7 30.61 1037 10 16.0934 0 0
3:15 pm 15:15 Mostly Cloudy 13 -10.5 7 -13.7 78 78 N 3 6 30.6 1036 10 16.0934 0 0
3:35 pm 15:35 Cloudy 13 -10.5 8 -13.6 78 78 NE 6 9 30.6 1036 10 16.0934 0 0
3:55 pm 15:55 Cloudy 13 -10.5 8 -13.6 78 78 NNE 5 7 30.6 1036 10 16.0934 0 0
4:15 pm 16:15 Cloudy with Light Snow 14 -10.2 8 -13.1 80 80 NE 3 6 30.6 1036 2 3.21868 0 0
4:35 pm 16:35 Cloudy with Light Snow 13 -10.3 10 -12.5 84 84 NE 5 7 30.59 1036 1.25 2.011675 0 0
4:55 pm 16:55 Cloudy 13 -10.5 10 -12.4 86 86 ENE 5 7 30.59 1036 7 11.26538 0 0
5:15 pm 17:15 Cloudy with Light Snow 13 -10.4 10 -12 88 88 E 5 7 30.59 1036 5 8.0467 0 0
5:35 pm 17:35 Cloudy with Light Snow 13 -10.3 10 -12 88 88 E 5 7 30.59 1036 10 16.0934 0 0
6:15 pm 18:15 Cloudy with Light Snow 13 -10.5 10 -12 89 89 E 6 9 30.59 1036 7 11.26538 0 0
6:35 pm 18:35 Cloudy with Light Snow 13 -10.6 10 -12.2 88 88 E 5 7 30.6 1036 7 11.26538 0 0
6:55 pm 18:55 Cloudy with Light Snow 13 -10.5 10 -12.1 88 88 E 5 7 30.6 1036 7 11.26538 0 0
7:15 pm 19:15 Cloudy with Light Snow 13 -10.5 10 -12 89 89 E 3 6 30.61 1037 10 16.0934 0 0
7:35 pm 19:35 Cloudy with Light Snow 13 -10.5 11 -11.9 90 90 ESE 5 7 30.61 1037 5 8.0467 0 0
7:55 pm 19:55 Cloudy 13 -10.5 11 -11.8 90 90 E 5 7 30.61 1037 10 16.0934 0 0
8:15 pm 20:15 Cloudy 13 -10.5 11 -11.7 91 91 E 3 6 30.62 1037 10 16.0934 0 0
8:35 pm 20:35 Cloudy 13 -10.5 11 -11.7 91 91 ESE 5 7 30.62 1037 10 16.0934 0 0
8:55 pm 20:55 Cloudy 13 -10.5 11 -11.7 91 91 ESE 6 9 30.62 1037 10 16.0934 0 0
9:15 pm 21:15 Cloudy 13 -10.5 11 -11.8 90 90 E 5 7 30.62 1037 10 16.0934 0 0
9:35 pm 21:35 Cloudy 13 -10.5 11 -11.7 91 91 E 6 9 30.61 1037 10 16.0934 0 0
9:55 pm 21:55 Cloudy 13 -10.5 11 -11.6 92 92 ESE 3 6 30.62 1037 10 16.0934 0 0
10:15 pm 22:15 Cloudy 13 -10.5 11 -11.5 92 92 ESE 3 6 30.62 1037 10 16.0934 0 0
10:35 pm 22:35 Cloudy with Light Snow 13 -10.5 11 -11.5 92 92 ESE 5 7 30.62 1037 10 16.0934 0 0
10:55 pm 22:55 Cloudy 13 -10.5 11 -11.5 92 92 E 3 6 30.6 1036 10 16.0934 0 0
11:15 pm 23:15 Cloudy 13 -10.5 11 -11.6 92 92 Calm 30.6 1036 10 16.0934 0 0
11:35 pm 23:35 Cloudy 13 -10.5 11 -11.7 91 91 Calm 30.61 1037 10 16.0934 0 0
11:55 pm 23:55 Cloudy 13 -10.5 11 -11.7 91 91 SE 3 6 30.61 1037 10 16.0934 0 0

Powered by AerisWeather